COSMOS 2219

Last updated on Sat Apr 13 2024 01:02:09 GMT+0100 (British Summer Time)

1 22219U 92076A 24103.26572527 .00000383 00000+0 22658-3 0 9995 2 22219 71.0627 33.6733 0018563 190.3797 169.6945 14.13845814619932
UTC large
Height (km)
Speed (km/s)
/
Latitude / Longitude
Inclination (degrees)
Orbital Period (minutes)
Azimuth
Elevation
Range (km)
Doppler Factor

Next 0 passes for location: London (51.5072 / 0.1276)

Sorry there are no passes over London.